Skip Page Navigation
NASA JPL Caltech
NASA Logo - Jet Propulsion Laboratory + View the NASA Portal
+ Near-Earth Object (NEO) Program
Search JPL
JPL Home Earth Solar System Stars & Galaxies Technology
JPL Solar System Dynamics
BODIES ORBITS EPHEMERIDES TOOLS PHYSICAL DATA DISCOVERY FAQ SITE MAP
JPL Small-Body Database Browser
Search: [ help ]  
2945 Zanstra (1935 ST1)
Classification: Main-belt Asteroid          SPK-ID: 2002945
Ephemeris | Orbit Diagram | Orbital Elements | Physical Parameters | Discovery Circumstances ]

[ show orbit diagram ]
Orbital Elements at Epoch 2457000.5 (2014-Dec-09.0) TDB
Reference: JPL 10 (heliocentric ecliptic J2000)
 Element Value Uncertainty (1-sigma)   Units 
e .1386922125559433 4.9854e-08  
a 2.668829813213294 1.6329e-08 AU
q 2.298683901483477 1.3601e-07 AU
i 2.626268423653333 5.4906e-06 deg
node 95.89470821387476 0.00011916 deg
peri 242.7705915827063 0.0001209 deg
M 85.26634621293913 2.1374e-05 deg
tp 2456623.314577270688
(2013-Nov-26.81457727)
9.3812e-05 JED
period 1592.501123989137
4.36
1.4616e-05
4.002e-08
d
yr
n .2260594950779172 2.0747e-09 deg/d
Q 3.03897572494311 1.8594e-08 AU
  Orbit Determination Parameters
   # obs. used (total)      1349  
   data-arc span      28947 days (79.25 yr)  
   first obs. used      1935-09-28  
   last obs. used      2014-12-29  
   planetary ephem.      DE431  
   SB-pert. ephem.      SB431-BIG16  
   condition code      0  
   fit RMS      .48821  
   data source      ORB  
   producer      Otto Matic  
   solution date      2015-Jan-07 23:59:51  

Additional Information
 Earth MOID = 1.29157 AU 
 T_jup = 3.367 
[ show covariance matrix ]

Ephemeris | Orbit Diagram | Orbital Elements | Physical Parameters | Discovery Circumstances ]

Physical Parameter Table
Parameter Symbol Value Units Sigma Reference Notes
absolute magnitude H 12.5 mag n/a MPO267719  
diameter diameter 21.12 km 1.1 IRAS-A-FPA-3-RDR-IMPS-V6.0 IRAS observations used: 6
rotation period rot_per 10.05 h n/a Asteroid Lightcurve DataBase (Rev. 2014-Mar-01) Result based on fragmentary lightcurve(s), may be completely wrong.
Published Reference List:
[Behrend, R. (2001) Observatoire de Geneve web site, http://obswww.unige.ch/~behrend/page_cou.html]
geometric albedo albedo 0.0522   0.006 IRAS-A-FPA-3-RDR-IMPS-V6.0 IRAS observations used: 6

2945 Zanstra (1935 ST1)          Discovered 1935-Sep-28 by Van Gent, H. at Johannesburg (LS)
Reference: DISCOVERY.DBLast Updated: 2003-08-29

Alternate Designations
 1935 ST1 = 1957 UC1 = 1970 SY = 1970 WM = 1975 XY5 = 1983 TN 
Ephemeris | Orbit Diagram | Orbital Elements | Physical Parameters | Discovery Circumstances ]
ABOUT SSD CREDITS/AWARDS PRIVACY/COPYRIGHT GLOSSARY LINKS
FirstGov 2015-Feb-01 18:11 UT
(server date/time)  
NASA Home Page
Site Manager:   Donald K. Yeomans
Webmaster  Alan B. Chamberlin